This is the latest recevied weather packets stored in our database for station/object W0AKO. If no packets are shown the sender has not sent any weather packets the latest 10 day(s).
| Time | Temp. | Humidity | Pressure | Rain* | Wind** | Luminosity | Snow |
|---|---|---|---|---|---|---|---|
| 1777643819 | 16.67° C | 10% | 1018.1 hPa | 0 mm | - | 82 W/m² | - |
| 1777643517 | 16.67° C | 10% | 1017.9 hPa | 0 mm | - | 135 W/m² | - |
| 1777643214 | 16.67° C | 10% | 1017.9 hPa | 0 mm | - | 62 W/m² | - |
| 1777642910 | 16.11° C | 10% | 1017.9 hPa | 0 mm | - | 88 W/m² | - |
| 1777642607 | 16.11° C | 10% | 1017.9 hPa | 0 mm | - | 79 W/m² | - |
| 1777642304 | 14.44° C | 10% | 1017.7 hPa | 0 mm | - | 67 W/m² | - |
| 1777642001 | 14.44° C | 10% | 1017.6 hPa | 0 mm | - | 40 W/m² | - |
| 1777641696 | 13.89° C | 10% | 1017.6 hPa | 0 mm | - | 34 W/m² | - |
| 1777641392 | 14.44° C | 10% | 1017.5 hPa | 0 mm | - | 27 W/m² | - |
| 1777641087 | 14.44° C | 10% | 1017.6 hPa | 0 mm | - | 23 W/m² | - |
| 1777640783 | 13.89° C | 10% | 1017.3 hPa | 0 mm | - | 18 W/m² | - |
| 1777640480 | 13.89° C | 10% | 1017.3 hPa | 0 mm | - | 15 W/m² | - |
| 1777640177 | 13.89° C | 10% | 1017.2 hPa | 0 mm | - | 10 W/m² | - |
| 1777639874 | 13.33° C | 10% | 1017.2 hPa | 0 mm | - | 7 W/m² | - |
| 1777639571 | 13.33° C | 10% | 1017.3 hPa | 0 mm | - | 3 W/m² | - |
| 1777639268 | 13.89° C | 10% | 1017.1 hPa | 0 mm | - | 2 W/m² | - |
| 1777638964 | 13.89° C | 10% | 1017.2 hPa | 0 mm | - | 0 W/m² | - |
| 1777638660 | 13.89° C | 10% | 1016.9 hPa | 0 mm | - | 0 W/m² | - |
| 1777638356 | 14.44° C | 10% | 1016.9 hPa | 0 mm | - | 0 W/m² | - |
| 1777638053 | 14.44° C | 10% | 1016.8 hPa | 0 mm | - | 0 W/m² | - |
| 1777637749 | 14.44° C | 10% | 1016.8 hPa | 0 mm | - | 0 W/m² | - |
| 1777637446 | 15° C | 10% | 1016.9 hPa | 0 mm | - | 0 W/m² | - |
| 1777637143 | 15° C | 10% | 1016.7 hPa | 0 mm | - | 0 W/m² | - |
| 1777636840 | 15.56° C | 10% | 1016.3 hPa | 0 mm | - | 0 W/m² | - |
| 1777636536 | 15.56° C | 10% | 1016.3 hPa | 0 mm | - | 0 W/m² | - |
* Rain latest hour (hover to see other rain measurements)
** Current wind speed in m/s (hover to see current wind gust speed)